Year,Month,Day,Hour,Minute,Value (Times are PST for temperature in C)
2022,05,13,00,00,5.80
2022,05,13,00,01,5.80
2022,05,13,00,02,5.80
2022,05,13,00,03,5.80
2022,05,13,00,04,5.70
2022,05,13,00,05,5.70
2022,05,13,00,06,5.70
2022,05,13,00,07,5.70
2022,05,13,00,08,5.70
2022,05,13,00,09,5.70
2022,05,13,00,10,5.70
2022,05,13,00,11,5.70
2022,05,13,00,12,5.70
2022,05,13,00,13,5.70
2022,05,13,00,14,5.70
2022,05,13,00,15,5.70
2022,05,13,00,16,5.70
2022,05,13,00,17,5.60
2022,05,13,00,18,5.70
2022,05,13,00,19,5.70
2022,05,13,00,20,5.70
2022,05,13,00,21,5.60
2022,05,13,00,22,5.60
2022,05,13,00,23,5.60
2022,05,13,00,24,5.60
2022,05,13,00,25,5.60
2022,05,13,00,26,5.60
2022,05,13,00,27,5.60
2022,05,13,00,28,5.60
2022,05,13,00,29,5.60
2022,05,13,00,30,5.60
2022,05,13,00,31,5.60
2022,05,13,00,32,5.60
2022,05,13,00,33,5.60
2022,05,13,00,34,5.60
2022,05,13,00,35,5.60
2022,05,13,00,36,5.60
2022,05,13,00,37,5.60
2022,05,13,00,38,5.60
2022,05,13,00,39,5.60
2022,05,13,00,40,5.60
2022,05,13,00,41,5.60
2022,05,13,00,42,5.50
2022,05,13,00,43,5.50
2022,05,13,00,44,5.50
2022,05,13,00,45,5.50
2022,05,13,00,46,5.50
2022,05,13,00,47,5.50
2022,05,13,00,48,5.50
2022,05,13,00,49,5.50
2022,05,13,00,50,5.50
2022,05,13,00,51,5.50
2022,05,13,00,52,5.50
2022,05,13,00,53,5.50
2022,05,13,00,54,5.50
2022,05,13,00,55,5.50
2022,05,13,00,56,5.40
2022,05,13,00,57,5.40
2022,05,13,00,58,5.40
2022,05,13,00,59,5.40
2022,05,13,01,00,5.40
2022,05,13,01,01,5.40
2022,05,13,01,02,5.40
2022,05,13,01,03,5.40
2022,05,13,01,04,5.40
2022,05,13,01,05,5.40
2022,05,13,01,06,5.40
2022,05,13,01,07,5.40
2022,05,13,01,08,5.40
2022,05,13,01,09,5.40
2022,05,13,01,10,5.40
2022,05,13,01,11,5.40
2022,05,13,01,12,5.40
2022,05,13,01,13,5.40
2022,05,13,01,14,5.40
2022,05,13,01,15,5.40
2022,05,13,01,16,5.40
2022,05,13,01,17,5.40
2022,05,13,01,18,5.40
2022,05,13,01,19,5.40
2022,05,13,01,20,5.40
2022,05,13,01,21,5.40
2022,05,13,01,22,5.40
2022,05,13,01,23,5.40
2022,05,13,01,24,5.40
2022,05,13,01,25,5.40
2022,05,13,01,26,5.40
2022,05,13,01,27,5.40
2022,05,13,01,28,5.40
2022,05,13,01,29,5.40
2022,05,13,01,30,5.40
2022,05,13,01,31,5.40
2022,05,13,01,32,5.40
2022,05,13,01,33,5.40
2022,05,13,01,34,5.40
2022,05,13,01,35,5.40
2022,05,13,01,36,5.40
2022,05,13,01,37,5.40
2022,05,13,01,38,5.40
2022,05,13,01,39,5.40
2022,05,13,01,40,5.40
2022,05,13,01,41,5.40
2022,05,13,01,42,5.40
2022,05,13,01,43,5.40
2022,05,13,01,44,5.40
2022,05,13,01,45,5.40
2022,05,13,01,46,5.30
2022,05,13,01,47,5.30
2022,05,13,01,48,5.30
2022,05,13,01,49,5.30
2022,05,13,01,50,5.30
2022,05,13,01,51,5.20
2022,05,13,01,52,5.20
2022,05,13,01,53,5.20
2022,05,13,01,54,5.10
2022,05,13,01,55,5.10
2022,05,13,01,56,5.10
2022,05,13,01,57,5.00
2022,05,13,01,58,5.00
2022,05,13,01,59,5.00
2022,05,13,02,00,4.90
2022,05,13,02,01,4.90
2022,05,13,02,02,4.90
2022,05,13,02,03,4.90
2022,05,13,02,04,4.80
2022,05,13,02,05,4.80
2022,05,13,02,06,4.80
2022,05,13,02,07,4.80
2022,05,13,02,08,4.80
2022,05,13,02,09,4.70
2022,05,13,02,10,4.70
2022,05,13,02,11,4.70
2022,05,13,02,12,4.70
2022,05,13,02,13,4.60
2022,05,13,02,14,4.60
2022,05,13,02,15,4.60
2022,05,13,02,16,4.60
2022,05,13,02,17,4.50
2022,05,13,02,18,4.50
2022,05,13,02,19,4.50
2022,05,13,02,20,4.40
2022,05,13,02,21,4.40
2022,05,13,02,22,4.40
2022,05,13,02,23,4.30
2022,05,13,02,24,4.30
2022,05,13,02,25,4.30
2022,05,13,02,26,4.30
2022,05,13,02,27,4.20
2022,05,13,02,28,4.20
2022,05,13,02,29,4.20
2022,05,13,02,30,4.10
2022,05,13,02,31,4.10
2022,05,13,02,32,4.10
2022,05,13,02,33,4.00
2022,05,13,02,34,4.00
2022,05,13,02,35,4.00
2022,05,13,02,36,4.00
2022,05,13,02,37,3.90
2022,05,13,02,38,3.90
2022,05,13,02,39,3.90
2022,05,13,02,40,3.90
2022,05,13,02,41,3.90
2022,05,13,02,42,3.90
2022,05,13,02,43,3.90
2022,05,13,02,44,3.90
2022,05,13,02,45,3.90
2022,05,13,02,46,3.90
2022,05,13,02,47,3.90
2022,05,13,02,48,3.90
2022,05,13,02,49,3.80
2022,05,13,02,50,3.80
2022,05,13,02,51,3.80
2022,05,13,02,52,3.80
2022,05,13,02,53,3.80
2022,05,13,02,54,3.80
2022,05,13,02,55,3.80
2022,05,13,02,56,3.70
2022,05,13,02,57,3.70
2022,05,13,02,58,3.70
2022,05,13,02,59,3.70
2022,05,13,03,00,3.70
2022,05,13,03,01,3.70
2022,05,13,03,02,3.70
2022,05,13,03,03,3.70
2022,05,13,03,04,3.70
2022,05,13,03,05,3.70
2022,05,13,03,06,3.70
2022,05,13,03,07,3.70
2022,05,13,03,08,3.60
2022,05,13,03,09,3.60
2022,05,13,03,10,3.60
2022,05,13,03,11,3.60
2022,05,13,03,12,3.50
2022,05,13,03,13,3.50
2022,05,13,03,14,3.50
2022,05,13,03,15,3.50
2022,05,13,03,16,3.40
2022,05,13,03,17,3.40
2022,05,13,03,18,3.40
2022,05,13,03,19,3.30
2022,05,13,03,20,3.30
2022,05,13,03,21,3.30
2022,05,13,03,22,3.30
2022,05,13,03,23,3.30
2022,05,13,03,24,3.30
2022,05,13,03,25,3.30
2022,05,13,03,26,3.30
2022,05,13,03,27,3.30
2022,05,13,03,28,3.30
2022,05,13,03,29,3.30
2022,05,13,03,30,3.30
2022,05,13,03,31,3.30
2022,05,13,03,32,3.30
2022,05,13,03,33,3.30
2022,05,13,03,34,3.30
2022,05,13,03,35,3.30
2022,05,13,03,36,3.30
2022,05,13,03,37,3.30
2022,05,13,03,38,3.30
2022,05,13,03,39,3.30
2022,05,13,03,40,3.30
2022,05,13,03,41,3.30
2022,05,13,03,42,3.30
2022,05,13,03,43,3.30
2022,05,13,03,44,3.30
2022,05,13,03,45,3.30
2022,05,13,03,46,3.40
2022,05,13,03,47,3.40
2022,05,13,03,48,3.40
2022,05,13,03,49,3.40
2022,05,13,03,50,3.50
2022,05,13,03,51,3.50
2022,05,13,03,52,3.50
2022,05,13,03,53,3.60
2022,05,13,03,54,3.60
2022,05,13,03,55,3.60
2022,05,13,03,56,3.60
2022,05,13,03,57,3.60
2022,05,13,03,58,3.60
2022,05,13,03,59,3.60
2022,05,13,04,00,3.60
2022,05,13,04,01,3.60
2022,05,13,04,02,3.60
2022,05,13,04,03,3.70
2022,05,13,04,04,3.70
2022,05,13,04,05,3.70
2022,05,13,04,06,3.70
2022,05,13,04,07,3.70
2022,05,13,04,08,3.70
2022,05,13,04,09,3.70
2022,05,13,04,10,3.70
2022,05,13,04,11,3.70
2022,05,13,04,12,3.70
2022,05,13,04,13,3.70
2022,05,13,04,14,3.70
2022,05,13,04,15,3.70
2022,05,13,04,16,3.70
2022,05,13,04,17,3.70
2022,05,13,04,18,3.70
2022,05,13,04,19,3.70
2022,05,13,04,20,3.70
2022,05,13,04,21,3.70
2022,05,13,04,22,3.70
2022,05,13,04,23,3.80
2022,05,13,04,24,3.80
2022,05,13,04,25,3.80
2022,05,13,04,26,3.80
2022,05,13,04,27,3.70
2022,05,13,04,28,3.70
2022,05,13,04,29,3.70
2022,05,13,04,30,3.70
2022,05,13,04,31,3.70
2022,05,13,04,32,3.70
2022,05,13,04,33,3.70
2022,05,13,04,34,3.60
2022,05,13,04,35,3.60
2022,05,13,04,36,3.60
2022,05,13,04,37,3.60
2022,05,13,04,38,3.60
2022,05,13,04,39,3.60
2022,05,13,04,40,3.60
2022,05,13,04,41,3.60
2022,05,13,04,42,3.60
2022,05,13,04,43,3.60
2022,05,13,04,44,3.50
2022,05,13,04,45,3.50
2022,05,13,04,46,3.50
2022,05,13,04,47,3.40
2022,05,13,04,48,3.40
2022,05,13,04,49,3.40
2022,05,13,04,50,3.40
2022,05,13,04,51,3.30
2022,05,13,04,52,3.30
2022,05,13,04,53,3.30
2022,05,13,04,54,3.30
2022,05,13,04,55,3.30
2022,05,13,04,56,3.20
2022,05,13,04,57,3.20
2022,05,13,04,58,3.20
2022,05,13,04,59,3.20
2022,05,13,05,00,3.10
2022,05,13,05,01,3.10
2022,05,13,05,02,3.10
2022,05,13,05,03,3.10
2022,05,13,05,04,3.10
2022,05,13,05,05,3.10
2022,05,13,05,06,3.10
2022,05,13,05,07,3.10
2022,05,13,05,08,3.10
2022,05,13,05,09,3.10
2022,05,13,05,10,3.20
2022,05,13,05,11,3.20
2022,05,13,05,12,3.20
2022,05,13,05,13,3.30
2022,05,13,05,14,3.30
2022,05,13,05,15,3.30
2022,05,13,05,16,3.30
2022,05,13,05,17,3.20
2022,05,13,05,18,3.20
2022,05,13,05,19,3.20
2022,05,13,05,20,3.20
2022,05,13,05,21,3.20
2022,05,13,05,22,3.10
2022,05,13,05,23,3.10
2022,05,13,05,24,3.10
2022,05,13,05,25,3.10
2022,05,13,05,26,3.10
2022,05,13,05,27,3.10
2022,05,13,05,28,3.10
2022,05,13,05,29,3.10
2022,05,13,05,30,3.10
2022,05,13,05,31,3.10
2022,05,13,05,32,3.00
2022,05,13,05,33,3.00
2022,05,13,05,34,3.00
2022,05,13,05,35,3.00
2022,05,13,05,36,3.00
2022,05,13,05,37,3.00
2022,05,13,05,38,3.00
2022,05,13,05,39,3.00
2022,05,13,05,40,3.00
2022,05,13,05,41,3.00
2022,05,13,05,42,3.00
2022,05,13,05,43,3.00
2022,05,13,05,44,3.10
2022,05,13,05,45,3.10
2022,05,13,05,46,3.20
2022,05,13,05,47,3.20
2022,05,13,05,48,3.20
2022,05,13,05,49,3.20
2022,05,13,05,50,3.20
2022,05,13,05,51,3.20
2022,05,13,05,52,3.30
2022,05,13,05,53,3.30
2022,05,13,05,54,3.30
2022,05,13,05,55,3.30
2022,05,13,05,56,3.30
2022,05,13,05,57,3.30
2022,05,13,05,58,3.30
2022,05,13,05,59,3.30
2022,05,13,06,00,3.30
2022,05,13,06,01,3.30
2022,05,13,06,02,3.30
2022,05,13,06,03,3.30
2022,05,13,06,04,3.30
2022,05,13,06,05,3.30
2022,05,13,06,06,3.30
2022,05,13,06,07,3.30
2022,05,13,06,08,3.30
2022,05,13,06,09,3.40
2022,05,13,06,10,3.40
2022,05,13,06,11,3.50
2022,05,13,06,12,3.50
2022,05,13,06,13,3.60
2022,05,13,06,14,3.60
2022,05,13,06,15,3.60
2022,05,13,06,16,3.60
2022,05,13,06,17,3.60
2022,05,13,06,18,3.60
2022,05,13,06,19,3.60
2022,05,13,06,20,3.60
2022,05,13,06,21,3.60
2022,05,13,06,22,3.60
2022,05,13,06,23,3.60
2022,05,13,06,24,3.60
2022,05,13,06,25,3.60
2022,05,13,06,26,3.60
2022,05,13,06,27,3.60
2022,05,13,06,28,3.70
2022,05,13,06,29,3.70
2022,05,13,06,30,3.80
2022,05,13,06,31,3.80
2022,05,13,06,32,3.80
2022,05,13,06,33,3.90
2022,05,13,06,34,3.90
2022,05,13,06,35,4.00
2022,05,13,06,36,4.10
2022,05,13,06,37,4.10
2022,05,13,06,38,4.20
2022,05,13,06,39,4.20
2022,05,13,06,40,4.20
2022,05,13,06,41,4.20
2022,05,13,06,42,4.30
2022,05,13,06,43,4.30
2022,05,13,06,44,4.40
2022,05,13,06,45,4.40
2022,05,13,06,46,4.50
2022,05,13,06,47,4.60
2022,05,13,06,48,4.70
2022,05,13,06,49,4.70
2022,05,13,06,50,4.70
2022,05,13,06,51,4.70
2022,05,13,06,52,4.70
2022,05,13,06,53,4.70
2022,05,13,06,54,4.80
2022,05,13,06,55,4.80
2022,05,13,06,56,4.90
2022,05,13,06,57,5.00
2022,05,13,06,58,5.00
2022,05,13,06,59,5.10
2022,05,13,07,00,5.10
2022,05,13,07,01,5.20
2022,05,13,07,02,5.20
2022,05,13,07,03,5.20
2022,05,13,07,04,5.20
2022,05,13,07,05,5.30
2022,05,13,07,06,5.30
2022,05,13,07,07,5.30
2022,05,13,07,08,5.30
2022,05,13,07,09,5.40
2022,05,13,07,10,5.40
2022,05,13,07,11,5.50
2022,05,13,07,12,5.60
2022,05,13,07,13,5.70
2022,05,13,07,14,5.80
2022,05,13,07,15,5.80
2022,05,13,07,16,5.80
2022,05,13,07,17,5.80
2022,05,13,07,18,5.80
2022,05,13,07,19,5.90
2022,05,13,07,20,6.00
2022,05,13,07,21,6.10
2022,05,13,07,22,6.10
2022,05,13,07,23,6.20
2022,05,13,07,24,6.20
2022,05,13,07,25,6.30
2022,05,13,07,26,6.30
2022,05,13,07,27,6.40
2022,05,13,07,28,6.50
2022,05,13,07,29,6.50
2022,05,13,07,30,6.60
2022,05,13,07,31,6.50
2022,05,13,07,32,6.50
2022,05,13,07,33,6.50
2022,05,13,07,34,6.60
2022,05,13,07,35,6.60
2022,05,13,07,36,6.60
2022,05,13,07,37,6.60
2022,05,13,07,38,6.60
2022,05,13,07,39,6.60
2022,05,13,07,40,6.60
2022,05,13,07,41,6.60
2022,05,13,07,42,6.70
2022,05,13,07,43,6.70
2022,05,13,07,44,6.70
2022,05,13,07,45,6.70
2022,05,13,07,46,6.70
2022,05,13,07,47,6.80
2022,05,13,07,48,6.80
2022,05,13,07,49,6.80
2022,05,13,07,50,6.80
2022,05,13,07,51,6.80
2022,05,13,07,52,6.90
2022,05,13,07,53,7.00
2022,05,13,07,54,7.00
2022,05,13,07,55,7.10
2022,05,13,07,56,7.10
2022,05,13,07,57,7.10
2022,05,13,07,58,7.20
2022,05,13,07,59,7.20
2022,05,13,08,00,7.30
2022,05,13,08,01,7.40
2022,05,13,08,02,7.40
2022,05,13,08,03,7.40
2022,05,13,08,04,7.40
2022,05,13,08,05,7.50
2022,05,13,08,06,7.70
2022,05,13,08,07,7.70
2022,05,13,08,08,7.80
2022,05,13,08,09,7.80
2022,05,13,08,10,7.90
2022,05,13,08,11,8.00
2022,05,13,08,12,8.00
2022,05,13,08,13,8.10
2022,05,13,08,14,8.10
2022,05,13,08,15,8.10
2022,05,13,08,16,8.20
2022,05,13,08,17,8.20
2022,05,13,08,18,8.20
2022,05,13,08,19,8.30
2022,05,13,08,20,8.30
2022,05,13,08,21,8.40
2022,05,13,08,22,8.50
2022,05,13,08,23,8.50
2022,05,13,08,24,8.60
2022,05,13,08,25,8.60
2022,05,13,08,26,8.70
2022,05,13,08,27,8.70
2022,05,13,08,28,8.80
2022,05,13,08,29,8.80
2022,05,13,08,30,8.80
2022,05,13,08,31,8.90
2022,05,13,08,32,8.90
2022,05,13,08,33,8.90
2022,05,13,08,34,8.90
2022,05,13,08,35,8.90
2022,05,13,08,36,8.90
2022,05,13,08,37,8.90
2022,05,13,08,38,8.90
2022,05,13,08,39,8.90
2022,05,13,08,40,8.90
2022,05,13,08,41,8.90
2022,05,13,08,42,8.90
2022,05,13,08,43,8.90
2022,05,13,08,44,8.90
2022,05,13,08,45,8.90
2022,05,13,08,46,8.90
2022,05,13,08,47,8.90
2022,05,13,08,48,8.90
2022,05,13,08,49,9.00
2022,05,13,08,50,9.00
2022,05,13,08,51,9.00
2022,05,13,08,52,9.00
2022,05,13,08,53,9.00
2022,05,13,08,54,9.00
2022,05,13,08,55,9.00
2022,05,13,08,56,9.00
2022,05,13,08,57,9.00
2022,05,13,08,58,9.00
2022,05,13,09,15,9.10
2022,05,13,09,16,9.00
2022,05,13,09,17,9.00
2022,05,13,09,18,9.00
2022,05,13,09,19,9.00
2022,05,13,09,20,9.00
2022,05,13,09,21,9.00
2022,05,13,09,22,9.10
2022,05,13,09,23,9.10
2022,05,13,09,24,9.10
2022,05,13,09,25,9.10
2022,05,13,09,26,9.10
2022,05,13,09,27,9.10
2022,05,13,09,28,9.10
2022,05,13,09,29,9.00
2022,05,13,09,30,9.00
2022,05,13,09,31,9.00
2022,05,13,09,32,9.00
2022,05,13,09,33,9.00
2022,05,13,09,34,9.00
2022,05,13,09,35,9.10
2022,05,13,09,36,9.10
2022,05,13,09,37,9.10
2022,05,13,09,38,9.10
2022,05,13,09,39,9.20
2022,05,13,09,40,9.20
2022,05,13,09,41,9.20
2022,05,13,09,42,9.20
2022,05,13,09,43,9.20
2022,05,13,09,44,9.20
2022,05,13,09,45,9.20
2022,05,13,09,46,9.20
2022,05,13,09,47,9.20
2022,05,13,09,48,9.20
2022,05,13,09,49,9.10
2022,05,13,09,50,9.10
2022,05,13,09,51,9.10
2022,05,13,09,52,9.00
2022,05,13,09,53,8.90
2022,05,13,09,54,8.90
2022,05,13,09,55,8.90
2022,05,13,09,56,8.80
2022,05,13,09,57,8.80
2022,05,13,09,58,8.80
2022,05,13,09,59,8.80
2022,05,13,10,00,8.80
2022,05,13,10,01,8.70
2022,05,13,10,02,8.70
2022,05,13,10,03,8.70
2022,05,13,10,04,8.70
2022,05,13,10,05,8.80
2022,05,13,10,06,8.80
2022,05,13,10,07,8.80
2022,05,13,10,08,8.80
2022,05,13,10,09,8.90
2022,05,13,10,10,8.90
2022,05,13,10,11,9.00
2022,05,13,10,12,9.10
2022,05,13,10,13,9.10
2022,05,13,10,14,9.20
2022,05,13,10,15,9.30
2022,05,13,10,16,9.30
2022,05,13,10,17,9.30
2022,05,13,10,18,9.40
2022,05,13,10,19,9.40
2022,05,13,10,20,9.50
2022,05,13,10,21,9.60
2022,05,13,10,22,9.60
2022,05,13,10,23,9.70
2022,05,13,10,24,9.80
2022,05,13,10,25,9.80
2022,05,13,10,26,9.80
2022,05,13,10,27,9.80
2022,05,13,10,28,9.90
2022,05,13,10,29,9.90
2022,05,13,10,30,10.00
2022,05,13,10,31,10.10
2022,05,13,10,32,10.10
2022,05,13,10,33,10.20
2022,05,13,10,34,10.20
2022,05,13,10,35,10.30
2022,05,13,10,36,10.40
2022,05,13,10,37,10.50
2022,05,13,10,38,10.60
2022,05,13,10,39,10.70
2022,05,13,10,40,10.80
2022,05,13,10,41,10.80
2022,05,13,10,42,10.90
2022,05,13,10,43,11.00
2022,05,13,10,44,11.00
2022,05,13,10,45,11.00
2022,05,13,10,46,11.00
2022,05,13,10,47,11.00
2022,05,13,10,48,11.10
2022,05,13,10,49,11.10
2022,05,13,10,50,11.20
2022,05,13,10,51,11.30
2022,05,13,10,52,11.30
2022,05,13,10,53,11.20
2022,05,13,10,54,11.30
2022,05,13,10,55,11.30
2022,05,13,10,56,11.20
2022,05,13,10,57,11.20
2022,05,13,10,58,11.20
2022,05,13,10,59,11.10
2022,05,13,11,00,11.10
2022,05,13,11,01,11.10
2022,05,13,11,02,11.10
2022,05,13,11,03,11.10
2022,05,13,11,04,11.10
2022,05,13,11,05,11.10
2022,05,13,11,06,11.10
2022,05,13,11,07,11.10
2022,05,13,11,08,11.00
2022,05,13,11,09,11.00
2022,05,13,11,10,11.00
2022,05,13,11,11,11.00
2022,05,13,11,12,11.00
2022,05,13,11,13,11.00
2022,05,13,11,14,11.00
2022,05,13,11,15,11.00
2022,05,13,11,16,11.00
2022,05,13,11,17,11.00
2022,05,13,11,18,11.00
2022,05,13,11,19,11.10
2022,05,13,11,20,11.10
2022,05,13,11,21,11.10
2022,05,13,11,22,11.10
2022,05,13,11,23,11.20
2022,05,13,11,24,11.20
2022,05,13,11,25,11.20
2022,05,13,11,26,11.20
2022,05,13,11,27,11.20
2022,05,13,11,28,11.10
2022,05,13,11,29,11.10
2022,05,13,11,30,11.10
2022,05,13,11,31,11.00
2022,05,13,11,32,11.00
2022,05,13,11,33,11.00
2022,05,13,11,34,10.90
2022,05,13,11,35,10.90
2022,05,13,11,36,10.90
2022,05,13,11,37,10.90
2022,05,13,11,38,10.90
2022,05,13,11,39,10.90
2022,05,13,11,40,10.90
2022,05,13,11,41,10.90
2022,05,13,11,42,10.90
2022,05,13,11,43,10.90
2022,05,13,11,44,10.80
2022,05,13,11,45,10.80
2022,05,13,11,46,10.80
2022,05,13,11,47,10.70
2022,05,13,11,48,10.70
2022,05,13,11,49,10.70
2022,05,13,11,50,10.70
2022,05,13,11,51,10.70
2022,05,13,11,52,10.70
2022,05,13,11,53,10.70
2022,05,13,11,54,10.70
2022,05,13,11,55,10.70
2022,05,13,11,56,10.70
2022,05,13,11,57,10.70
2022,05,13,11,58,10.70
2022,05,13,11,59,10.70
2022,05,13,12,00,10.60
2022,05,13,12,01,10.60
2022,05,13,12,02,10.60
2022,05,13,12,03,10.60
2022,05,13,12,04,10.60
2022,05,13,12,05,10.60
2022,05,13,12,06,10.60
2022,05,13,12,07,10.70
2022,05,13,12,08,10.70
2022,05,13,12,09,10.70
2022,05,13,12,10,10.80
2022,05,13,12,11,10.80
2022,05,13,12,12,10.80
2022,05,13,12,13,10.80
2022,05,13,12,14,10.80
2022,05,13,12,15,10.70
2022,05,13,12,16,10.70
2022,05,13,12,17,10.70
2022,05,13,12,18,10.70
2022,05,13,12,19,10.70
2022,05,13,12,20,10.70
2022,05,13,12,21,10.70
2022,05,13,12,22,10.70
2022,05,13,12,23,10.70
2022,05,13,12,24,10.70
2022,05,13,12,25,10.70
2022,05,13,12,26,10.70
2022,05,13,12,27,10.70
2022,05,13,12,28,10.80
2022,05,13,12,29,10.80
2022,05,13,12,30,10.80
2022,05,13,12,31,10.90
2022,05,13,12,32,11.00
2022,05,13,12,33,11.10
2022,05,13,12,34,11.20
2022,05,13,12,35,11.30
2022,05,13,12,36,11.30
2022,05,13,12,37,11.40
2022,05,13,12,38,11.40
2022,05,13,12,39,11.40
2022,05,13,12,40,11.40
2022,05,13,12,41,11.40
2022,05,13,12,42,11.30
2022,05,13,12,43,11.30
2022,05,13,12,44,11.30
2022,05,13,12,45,11.20
2022,05,13,12,46,11.10
2022,05,13,12,47,11.00
2022,05,13,12,48,11.00
2022,05,13,12,49,10.80
2022,05,13,12,50,10.80
2022,05,13,12,51,10.80
2022,05,13,12,52,10.80
2022,05,13,12,53,10.80
2022,05,13,12,54,10.80
2022,05,13,12,55,10.70
2022,05,13,12,56,10.70
2022,05,13,12,57,10.70
2022,05,13,12,58,10.70
2022,05,13,12,59,10.80
2022,05,13,13,00,10.80
2022,05,13,13,01,10.90
2022,05,13,13,02,10.90
2022,05,13,13,03,10.90
2022,05,13,13,04,10.90
2022,05,13,13,05,10.80
2022,05,13,13,06,10.70
2022,05,13,13,07,10.70
2022,05,13,13,08,10.70
2022,05,13,13,09,10.80
2022,05,13,13,10,10.80
2022,05,13,13,11,10.80
2022,05,13,13,12,10.90
2022,05,13,13,13,10.80
2022,05,13,13,14,10.90
2022,05,13,13,15,10.90
2022,05,13,13,16,10.90
2022,05,13,13,17,10.90
2022,05,13,13,18,11.00
2022,05,13,13,19,11.00
2022,05,13,13,20,11.00
2022,05,13,13,21,11.00
2022,05,13,13,22,11.00
2022,05,13,13,23,10.90
2022,05,13,13,24,10.90
2022,05,13,13,25,10.80
2022,05,13,13,26,10.80
2022,05,13,13,27,10.70
2022,05,13,13,28,10.60
2022,05,13,13,29,10.60
2022,05,13,13,30,10.60
2022,05,13,13,31,10.60
2022,05,13,13,32,10.60
2022,05,13,13,33,10.50
2022,05,13,13,34,10.50
2022,05,13,13,35,10.50
2022,05,13,13,36,10.40
2022,05,13,13,37,10.30
2022,05,13,13,38,10.30
2022,05,13,13,39,10.20
2022,05,13,13,40,10.20
2022,05,13,13,41,10.20
2022,05,13,13,42,10.20
2022,05,13,13,43,10.10
2022,05,13,13,44,10.10
2022,05,13,13,45,10.10
2022,05,13,13,46,10.20
2022,05,13,13,47,10.20
2022,05,13,13,48,10.30
2022,05,13,13,49,10.30
2022,05,13,13,50,10.30
2022,05,13,13,51,10.30
2022,05,13,13,52,10.30
2022,05,13,13,53,10.30
2022,05,13,13,54,10.30
2022,05,13,13,55,10.30
2022,05,13,13,56,10.30
2022,05,13,13,57,10.30
2022,05,13,13,58,10.20
2022,05,13,13,59,10.30
2022,05,13,14,00,10.40
2022,05,13,14,01,10.40
2022,05,13,14,02,10.40
2022,05,13,14,03,10.60
2022,05,13,14,04,10.60
2022,05,13,14,05,10.60
2022,05,13,14,06,10.60
2022,05,13,14,07,10.70
2022,05,13,14,08,10.80
2022,05,13,14,09,10.80
2022,05,13,14,10,10.80
2022,05,13,14,11,10.70
2022,05,13,14,12,10.80
2022,05,13,14,13,10.70
2022,05,13,14,14,10.60
2022,05,13,14,15,10.50
2022,05,13,14,16,10.50
2022,05,13,14,17,10.50
2022,05,13,14,18,10.50
2022,05,13,14,19,10.50
2022,05,13,14,20,10.50
2022,05,13,14,21,10.50
2022,05,13,14,22,10.50
2022,05,13,14,23,10.60
2022,05,13,14,24,10.60
2022,05,13,14,25,10.80
2022,05,13,14,26,10.90
2022,05,13,14,27,10.90
2022,05,13,14,28,11.00
2022,05,13,14,29,11.20
2022,05,13,14,30,11.30
2022,05,13,14,31,11.30
2022,05,13,14,32,11.40
2022,05,13,14,33,11.40
2022,05,13,14,34,11.50
2022,05,13,14,35,11.60
2022,05,13,14,36,11.60
2022,05,13,14,37,11.50
2022,05,13,14,38,11.50
2022,05,13,14,39,11.50
2022,05,13,14,40,11.60
2022,05,13,14,41,11.60
2022,05,13,14,42,11.60
2022,05,13,14,43,11.50
2022,05,13,14,44,11.50
2022,05,13,14,45,11.50
2022,05,13,14,46,11.40
2022,05,13,14,47,11.40
2022,05,13,14,48,11.30
2022,05,13,14,49,11.30
2022,05,13,14,50,11.30
2022,05,13,14,51,11.30
2022,05,13,14,52,11.20
2022,05,13,14,53,11.10
2022,05,13,14,54,11.10
2022,05,13,14,55,11.10
2022,05,13,14,56,11.20
2022,05,13,14,57,11.20
2022,05,13,14,58,11.20
2022,05,13,14,59,11.30
2022,05,13,15,00,11.30
2022,05,13,15,01,11.30
2022,05,13,15,02,11.30
2022,05,13,15,03,11.30
2022,05,13,15,04,11.30
2022,05,13,15,05,11.20
2022,05,13,15,06,11.20
2022,05,13,15,07,11.20
2022,05,13,15,08,11.30
2022,05,13,15,09,11.30
2022,05,13,15,10,11.30
2022,05,13,15,11,11.30
2022,05,13,15,12,11.40
2022,05,13,15,13,11.40
2022,05,13,15,14,11.40
2022,05,13,15,15,11.30
2022,05,13,15,16,11.30
2022,05,13,15,17,11.20
2022,05,13,15,18,11.20
2022,05,13,15,19,11.20
2022,05,13,15,20,11.20
2022,05,13,15,21,11.20
2022,05,13,15,22,11.20
2022,05,13,15,23,11.10
2022,05,13,15,24,11.10
2022,05,13,15,25,11.10
2022,05,13,15,26,11.10
2022,05,13,15,27,11.10
2022,05,13,15,28,11.00
2022,05,13,15,29,11.00
2022,05,13,15,30,11.00
2022,05,13,15,31,11.10
2022,05,13,15,32,11.10
2022,05,13,15,33,11.10
2022,05,13,15,34,11.10
2022,05,13,15,35,11.10
2022,05,13,15,36,11.10
2022,05,13,15,37,11.10
2022,05,13,15,38,11.10
2022,05,13,15,39,11.10
2022,05,13,15,40,11.20
2022,05,13,15,41,11.20
2022,05,13,15,42,11.20
2022,05,13,15,43,11.20
2022,05,13,15,44,11.20
2022,05,13,15,45,11.30
2022,05,13,15,46,11.30
2022,05,13,15,47,11.40
2022,05,13,15,48,11.40
2022,05,13,15,49,11.50
2022,05,13,15,50,11.50
2022,05,13,15,51,11.50
2022,05,13,15,52,11.40
2022,05,13,15,53,11.40
2022,05,13,15,54,11.40
2022,05,13,15,55,11.40
2022,05,13,15,56,11.40
2022,05,13,15,57,11.40
2022,05,13,15,58,11.40
2022,05,13,15,59,11.40
2022,05,13,16,00,11.40
2022,05,13,16,01,11.50
2022,05,13,16,02,11.50
2022,05,13,16,03,11.40
2022,05,13,16,04,11.40
2022,05,13,16,05,11.40
2022,05,13,16,06,11.40
2022,05,13,16,07,11.40
2022,05,13,16,08,11.40
2022,05,13,16,09,11.50
2022,05,13,16,10,11.60
2022,05,13,16,11,11.60
2022,05,13,16,12,11.70
2022,05,13,16,13,11.70
2022,05,13,16,14,11.70
2022,05,13,16,15,11.80
2022,05,13,16,16,11.80
2022,05,13,16,17,11.80
2022,05,13,16,18,11.80
2022,05,13,16,19,11.80
2022,05,13,16,20,11.80
2022,05,13,16,21,11.80
2022,05,13,16,22,11.80
2022,05,13,16,23,11.90
2022,05,13,16,24,11.90
2022,05,13,16,25,11.90
2022,05,13,16,26,12.00
2022,05,13,16,27,12.00
2022,05,13,16,28,12.10
2022,05,13,16,29,12.10
2022,05,13,16,30,12.10
2022,05,13,16,31,12.20
2022,05,13,16,32,12.20
2022,05,13,16,33,12.30
2022,05,13,16,34,12.30
2022,05,13,16,35,12.30
2022,05,13,16,36,12.30
2022,05,13,16,37,12.40
2022,05,13,16,38,12.40
2022,05,13,16,39,12.40
2022,05,13,16,40,12.40
2022,05,13,16,41,12.40
2022,05,13,16,42,12.40
2022,05,13,16,43,12.40
2022,05,13,16,44,12.30
2022,05,13,16,45,12.30
2022,05,13,16,46,12.40
2022,05,13,16,47,12.40
2022,05,13,16,48,12.40
2022,05,13,16,49,12.40
2022,05,13,16,50,12.40
2022,05,13,16,51,12.40
2022,05,13,16,52,12.50
2022,05,13,16,53,12.50
2022,05,13,16,54,12.50
2022,05,13,16,55,12.50
2022,05,13,16,56,12.40
2022,05,13,16,57,12.40
2022,05,13,16,58,12.40
2022,05,13,16,59,12.40
2022,05,13,17,00,12.30
2022,05,13,17,01,12.30
2022,05,13,17,02,12.30
2022,05,13,17,03,12.30
2022,05,13,17,04,12.30
2022,05,13,17,05,12.30
2022,05,13,17,06,12.30
2022,05,13,17,07,12.30
2022,05,13,17,08,12.30
2022,05,13,17,09,12.30
2022,05,13,17,10,12.30
2022,05,13,17,11,12.30
2022,05,13,17,12,12.20
2022,05,13,17,13,12.20
2022,05,13,17,14,12.20
2022,05,13,17,15,12.20
2022,05,13,17,16,12.10
2022,05,13,17,17,12.10
2022,05,13,17,18,12.10
2022,05,13,17,19,12.00
2022,05,13,17,20,12.00
2022,05,13,17,21,11.90
2022,05,13,17,22,11.90
2022,05,13,17,23,11.80
2022,05,13,17,24,11.80
2022,05,13,17,25,11.80
2022,05,13,17,26,11.70
2022,05,13,17,27,11.70
2022,05,13,17,28,11.60
2022,05,13,17,29,11.60
2022,05,13,17,30,11.60
2022,05,13,17,31,11.70
2022,05,13,17,32,11.70
2022,05,13,17,33,11.70
2022,05,13,17,34,11.70
2022,05,13,17,35,11.80
2022,05,13,17,36,11.80
2022,05,13,17,37,11.80
2022,05,13,17,38,11.80
2022,05,13,17,39,11.80
2022,05,13,17,40,11.90
2022,05,13,17,41,11.90
2022,05,13,17,42,11.90
2022,05,13,17,43,11.90
2022,05,13,17,44,11.90
2022,05,13,17,45,11.80
2022,05,13,17,46,11.80
2022,05,13,17,47,11.70
2022,05,13,17,48,11.70
2022,05,13,17,49,11.70
2022,05,13,17,50,11.60
2022,05,13,17,51,11.60
2022,05,13,17,52,11.50
2022,05,13,17,53,11.50
2022,05,13,17,54,11.40
2022,05,13,17,55,11.40
2022,05,13,17,56,11.30
2022,05,13,17,57,11.30
2022,05,13,17,58,11.30
2022,05,13,17,59,11.20
2022,05,13,18,00,11.20
2022,05,13,18,01,11.20
2022,05,13,18,02,11.10